Regional Weather Roundup
Issued by NWS Wakefield, VA

Home | Current Version | Previous Version | Text Only | Print | Product List | Glossary On
Versions: 1 2 3 4 5 6 7 8 9 10 11 12 13 14 15 16 17 18 19 20 21 22 23 24 25 26 27
000
ASUS41 KAKQ 221815
RWRAKQ

REGIONAL WEATHER ROUNDUP
NATIONAL WEATHER SERVICE WAKEFIELD VA
100 PM EST WED NOV 22 2017

Note: "fair" indicates few or no clouds below 12,000 feet with no
significant weather and/or obstructions to visibility. * = Denotes
station may not report precipitation (e.g., rain,snow,etc.),
thunder or fog.

VAZ042-051-052>054-056-221900-
NORTHERN VIRGINIA

CITY           SKY/WX    TMP DP  RH WIND       PRES   REMARKS
WASH NATIONAL  MOSUNNY   55  33  43 NW16G28   30.02R
DULLES         MOSUNNY   51  30  44 NW22G28   30.03S
FORT BELVOIR   SUNNY     53  30  41 NW22G29   30.02R
QUANTICO       NOT AVBL
FREDERICKSBRG* MOSUNNY   57  36  45 N15       30.00S
STAFFORD*      SUNNY     55  33  43 NW13G23   30.05S
WARRENTON      NOT AVBL
CULPEPER*      SUNNY     56  28  34 N15G21    30.03R
MANASSAS*      MOSUNNY   53  30  41 NW16G26   30.03S
LEESBURG*      PTSUNNY   54  32  43 N18G25    30.04S
WINCHESTER     CLOUDY    43  28  56 NW13G21   30.06S
FRONT ROYAL*   PTCLDY    48  28  46 NW9G18    30.05S
LURAY*         PTCLDY    50  30  46 W13G18    30.05R
$$

VAZ048-049-060>072-079>083-221900-
CENTRAL AND SOUTH CENTRAL VIRGINIA

CITY           SKY/WX    TMP DP  RH WIND       PRES   REMARKS
RICHMOND       MOSUNNY   63  36  36 NW16G23   29.97F
CHESTERFIELD*  NOT AVBL
PETERSBURG*    SUNNY    N/A N/A N/A NW10G17   29.98S
HANOVER        SUNNY     61  35  37 NW9G22    29.99S
TAPPAHANNOCK*    N/A    N/A N/A N/A MISG        N/A
QUINTON*       FAIR      60  38  44 NW9G25    29.96S
CHARLOTTSVILLE SUNNY     59  28  30 N12G17    30.01S
GORDONSVILLE*  CLEAR     58  31  35 NW10G16   30.00S
ORANGE*        SUNNY     55  30  38 NW10G21   30.01R
LOUISA*        MOSUNNY   59  33  37 NW12      30.03S
BUMPASS*       FAIR      59  29  32 NW6       29.99S
FARMVILLE*     SUNNY     62  37  39 N8        29.98S
CREWE*         FAIR      60  35  38 N12G17    29.98F
FORT PICKETT*  NOT AVBL
CHASE CITY*    FAIR      60  34  37 NW8G16    30.00S
CLARKSVILLE*   FAIR      61  34  36 N9        30.00S
SOUTH HILL*    SUNNY     61  38  42 NW7       30.04S
LAWRENCEVILLE* FAIR      62  38  40 NW7       29.97F
EMPORIA*       SUNNY     61  41  48 NW8G16    29.98F
$$

VAZ088>098-221900-
SOUTHEAST VIRGINIA

CITY           SKY/WX    TMP DP  RH WIND       PRES   REMARKS
NORFOLK        MOSUNNY   60  47  61 N14       29.94S
VIRGINIA BEACH PTSUNNY   61  46  57 N14G26    29.93S
NORFOLK NAVAL  CLOUDY    62  45  53 N10       29.96S
WEST POINT*    SUNNY     61  33  34 NW10G21   29.97S
SALUDA*        FAIR      59  43  55 NW9       29.95S
NEWPORT NEWS   MOSUNNY   60  43  53 N12G25    29.95F
LANGLEY AFB    MOSUNNY   62  46  56 N14       29.94F
FORT EUSTIS    SUNNY     62  46  56 NW8G17    29.93S
WILLIAMSBURG*  SUNNY     64  46  52 NW13G18   29.96S
HR EXEC AP*    NOT AVBL
FRANKLIN*      CLOUDY    63  46  54 N10G20    29.96S
US460-WAKEFLD  SUNNY     62  44  51 N10G18    29.96F
$$

VAZ020-022-025-037-045-221900-
WEST CENTRAL AND SOUTHWEST VIRGINIA

CITY           SKY/WX    TMP DP  RH WIND       PRES   REMARKS
STAUNTON*      SUNNY     50  28  42 NW6       30.06S
WAYNESBORO*    CLEAR     51  26  37 NW8       30.02F
HOT SPRINGS VA MOSUNNY   39  23  53 NW10G23   30.00S
LYNCHBURG      SUNNY     58  24  27 N9G17     30.01F
DANVILLE       SUNNY     61  34  36 NW10      30.02F
SOUTH BOSTON*  FAIR      61  30  30 NW13G20   30.01F
MARTINSVILLE   SUNNY     56  29  35 NW13      30.06F
ROANOKE        MOSUNNY   53  29  39 W15       30.07F
BLACKSBURG     SUNNY     47  28  46 NW10G23   30.09S
DUBLIN*        SUNNY     49  29  46 NW10      30.07F
MARION*        SUNNY     47  27  45 W14       30.10F
HILLSVILLE*    SUNNY     46  26  44 NW13G20   30.04S
RICHLANDS*     FAIR      43   5  21 NW8       30.11F
WISE*          SUNNY     41  32  70 CALM      30.14F
ABINGDON*      SUNNY     48  31  52 N7        30.12F
$$

MDZ021>025-VAZ099-100-221900-
SOUTHERN MARYLAND AND THE DELMARVA PENINSULA

CITY           SKY/WX    TMP DP  RH WIND       PRES   REMARKS
PATUXENT RIVER MOSUNNY   58  38  47 NW21      29.96R
BAY BRIDGE APT SUNNY     55  37  50 NW22G29   29.98R
LEONARDTOWN    SUNNY     57  34  41 NW14G22   29.98S
DOVER          MOSUNNY   58  36  43 NW16G24   29.92R
GEORGETOWN     MOSUNNY   60  39  45 N9G22     29.92S
EASTON         MOSUNNY   57  36  44 NW21G29   29.99R
CAMBRIDGE      SUNNY     57  36  44 NW22G31   29.95S
SALISBURY      SUNNY     59  40  49 N24       29.92S
OCEAN CITY     MOSUNNY   59  44  57 NW17G23   29.92S
WALLOPS ISLAND MOSUNNY   61  43  51 NW12G22   29.92S
ACCOMACK*      SUNNY     60  44  55 NW15G22   29.94S
$$

NCZ012>017-030>032-221900-
NORTH CENTRAL AND EASTERN NORTH CAROLINA

CITY           SKY/WX    TMP DP  RH WIND       PRES   REMARKS
ROANOKE RAPIDS FAIR      63  43  48 N12G18    29.97S
RALEIGH        MOSUNNY   62  36  37 N13       30.01F
ELIZABETH CITY PTSUNNY   63  54  72 N18       29.92S
AHOSKIE*       MOSUNNY   62  48  60 N10G20    29.96S
EDENTON*       MOSUNNY   67  53  60 N17G24    29.93S
CURRITUCK*     CLOUDY    62  51  66 N13       29.93R
KILL DEVIL HLS MOSUNNY   63  54  74 N14G20    29.90S
MANTEO         MOSUNNY   63  55  75 N9G16     29.91F
CAPE HATTERAS  PTSUNNY   64  60  87 NW6       29.92R
TARBORO*       NOT AVBL
GOLDSBORO      SUNNY     68  41  36 NW14      29.95S
WASHINGTON     SUNNY     66  48  52 NW10G17   29.94S
GREENVILLE     SUNNY     66  45  45 NW7G17    29.98S
NEW BERN       SUNNY     66  52  60 N10       29.95S
WILMINGTON     SUNNY     71  53  52 NW14      29.94F
$$

VAZ048-221900-
ELSEWHERE

CITY           SKY/WX    TMP DP  RH WIND       PRES   REMARKS
HARRISBURG PA  CLOUDY    49  28  44 NW18G26   30.01R
BALTIMORE      MOSUNNY   53  32  44 W25G32    29.99R
ANNAPOLIS      SUNNY     54  36  50 NW21G29   29.98R
ANDREWS AFB    MOSUNNY   53  31  42 NW23G29   29.99R
PHILADELPHIA   MOSUNNY   56  34  43 W17G26    29.93R
HENDERSON NC   SUNNY     59  33  37 N10       30.00F
GREENSBORO     MOSUNNY   60  34  37 N9        30.03F
ROCKY MOUNT    SUNNY     64  39  39 N13       29.97F
$$

VAZ100-221900-
MARINE

STATION/POSITION TIME  TEMP    WIND        PRES    WAVE   SWELL
                       AIR SEA DIR/SP/G            HT/PER HT/PER
                 (UTC) (F)     (DEG/KT/KT) (MB)    (FT/S) (FT/S)
BRANDYWINE LGT   1742   54     340/ 19/ 23 1013.3R
CAPE MAY NJ      1748   54 51  320/ 16/ 20 1012.4R
LEWES DE         1742   54 53  350/ 18/ 21 1013.0R
15NM E FENWICK I 1750   56 58  320/ 23/ 27 1012.1R   4/ 4   2/ 8
OCEAN-CITY-INLET 1742   57 54  350/ 11/ 16 1013.2R
WACHAPREAGUE VA  1742   60 53  300/  4/  8 1013.5R
THOMAS POINT MD  1800   53 53  320/ 17/ 21   N/A
GOOSES REEF MD   1750   54     330/ 21/ 29 1020.5F
COVE POINT MD    1742   55     340/ 24/ 29 1015.1R
SOLOMONS ISLAND  1742   56 54  320/ 13/ 18 1014.2R
BISHOPS HEAD MD  1742   58 52  320/ 19/ 24 1014.6R
PINEY POINT MD   1742          330/ 22/ 24   N/A
POTOMAC MD       1750   56     310/ 19/ 25 1013.4F
CAMBRIDGE MD     1742   58 51              1015.0R
LEWISETTA VA     1742   57 52  320/ 19/ 24 1014.6R
RAPPAHANNOCK LGT 1742          320/ 18/ 21 1014.5F
STINGRAY PT      1750   58     360/ 17/ 23 1014.6R
YORK RVR RNG VA  1742   58     360/ 20/ 23 1014.4F
YORKTOWN VA      1742   57 54  310/ 14/ 16 1014.0F
JAMESTOWN VA     1750          320/ 14/ 17   N/A
DOMINION TERM VA 1742   60      40/  4/ 14 1014.1F
KIPTOPEKE VA     1742      54  350/ 17/ 21   N/A
CAPE HENRY VA    1742   56     340/ 15/ 17   N/A
WILLOUBY STN VA  1742   58     360/ 11/ 13 1013.8F
S CRANEY ISL VA  1742   58     360/ 11/ 13 1013.8F
CAPE HENRY BUOY  1800      57                N/A     4/ 8
1ST LANDING BUOY 1750   57     360/ 10/ 14 1014.0F
CAPE CHARLES BUO 1751      58                N/A     4/ 8
64NM E OF VA BCH 1750   60 62  340/ 21/ 25 1011.7F   5/ 8   3/ 8
DUCK PIER NC     1742   59 60  360/ 24/ 27 1012.0F
44100 DUCK FRF   1645      61                N/A     4/ 8
44056 DUCK FRF   1800      61                N/A     3/ 8
OREGON INLET NC  1742   62 56  340/ 16/ 23 1012.3F
HATTERAS NC      1742   60 60  310/  9/ 11 1012.7R
DIAMOND SHLS NC  1800   63 75  320/ 14/ 19 1012.8
CAPE LOOKOUT NC  1800          330/  8/ 10 1013.6F
$$




USA.gov is the U.S. government's official web portal to all federal, state and local government web resources and services.